TimeCDT,TemperatureF,Dew PointF,Humidity,Sea Level PressureIn,VisibilityMPH,Wind Direction,Wind SpeedMPH,Gust SpeedMPH,PrecipitationIn,Events,Conditions,WindDirDegrees,DateUTC
12:15 AM,63.1,56.3,78,30.10,10.0,Calm,Calm,-,N/A,,Clear,0,2013-05-24 05:15:00
12:35 AM,61.2,55.9,83,30.11,10.0,Calm,Calm,-,N/A,,Clear,0,2013-05-24 05:35:00
12:55 AM,60.6,55.6,83,30.10,10.0,NNW,3.5,-,N/A,,Clear,340,2013-05-24 05:55:00
1:15 AM,61.5,55.2,80,30.11,10.0,NNW,3.5,-,N/A,,Clear,330,2013-05-24 06:15:00
1:35 AM,60.8,54.9,81,30.12,10.0,Calm,Calm,-,N/A,,Clear,0,2013-05-24 06:35:00
1:55 AM,59.9,54.9,83,30.12,10.0,Calm,Calm,-,N/A,,Clear,0,2013-05-24 06:55:00
2:15 AM,59.7,54.9,84,30.13,10.0,Calm,Calm,-,N/A,,Clear,0,2013-05-24 07:15:00
2:35 AM,59.4,54.9,85,30.13,10.0,Calm,Calm,-,N/A,,Clear,0,2013-05-24 07:35:00
2:55 AM,59.0,54.7,86,30.13,10.0,NNW,3.5,-,N/A,,Clear,340,2013-05-24 07:55:00
3:15 AM,58.6,54.7,87,30.13,10.0,Calm,Calm,-,N/A,,Clear,0,2013-05-24 08:15:00
3:35 AM,58.5,54.5,87,30.13,10.0,North,4.6,-,N/A,,Clear,10,2013-05-24 08:35:00
3:55 AM,58.1,54.1,87,30.14,10.0,North,4.6,-,N/A,,Clear,360,2013-05-24 08:55:00
4:15 AM,57.9,54.0,87,30.14,10.0,North,3.5,-,N/A,,Clear,10,2013-05-24 09:15:00
4:35 AM,57.4,53.6,87,30.15,10.0,NNE,3.5,-,N/A,,Clear,20,2013-05-24 09:35:00
4:55 AM,56.5,53.6,90,30.15,10.0,North,3.5,-,N/A,,Clear,350,2013-05-24 09:55:00
5:15 AM,56.8,53.6,89,30.16,10.0,North,3.5,-,N/A,,Clear,10,2013-05-24 10:15:00
5:35 AM,56.1,53.6,91,30.16,10.0,North,3.5,-,N/A,,Clear,360,2013-05-24 10:35:00
5:55 AM,55.9,53.8,92,30.18,10.0,NNW,3.5,-,N/A,,Mostly Cloudy,340,2013-05-24 10:55:00
6:15 AM,56.7,54.3,92,30.19,10.0,North,4.6,-,N/A,,Mostly Cloudy,350,2013-05-24 11:15:00
6:35 AM,57.4,54.7,91,30.19,10.0,North,3.5,-,N/A,,Overcast,350,2013-05-24 11:35:00
6:55 AM,57.7,55.0,91,30.19,10.0,NNW,6.9,-,N/A,,Overcast,340,2013-05-24 11:55:00
7:15 AM,57.9,54.7,89,30.21,10.0,North,5.8,-,N/A,,Overcast,350,2013-05-24 12:15:00
7:35 AM,58.3,54.3,87,30.22,10.0,North,10.4,-,N/A,,Overcast,360,2013-05-24 12:35:00
7:55 AM,58.5,54.1,86,30.23,10.0,North,4.6,-,N/A,,Overcast,360,2013-05-24 12:55:00
8:15 AM,58.5,54.5,87,30.24,10.0,North,6.9,17.3,N/A,,Overcast,350,2013-05-24 13:15:00
8:35 AM,58.5,54.3,86,30.25,10.0,North,9.2,16.1,N/A,,Overcast,360,2013-05-24 13:35:00
8:55 AM,57.7,53.6,86,30.26,10.0,North,9.2,17.3,N/A,,Overcast,350,2013-05-24 13:55:00
9:15 AM,57.4,52.9,85,30.27,10.0,NNW,9.2,-,N/A,,Overcast,340,2013-05-24 14:15:00
9:35 AM,57.7,52.5,83,30.27,10.0,North,10.4,-,N/A,,Overcast,360,2013-05-24 14:35:00
9:55 AM,59.2,52.0,77,30.27,10.0,NNW,5.8,-,N/A,,Overcast,340,2013-05-24 14:55:00
10:15 AM,61.7,52.0,70,30.28,10.0,NNW,5.8,-,N/A,,Mostly Cloudy,330,2013-05-24 15:15:00
10:35 AM,62.6,51.3,66,30.27,10.0,North,15.0,18.4,N/A,,Scattered Clouds,10,2013-05-24 15:35:00
10:55 AM,63.3,50.4,63,30.27,10.0,North,9.2,20.7,N/A,,Clear,360,2013-05-24 15:55:00
11:15 AM,64.2,50.7,61,30.27,10.0,North,10.4,-,N/A,,Clear,360,2013-05-24 16:15:00
11:35 AM,65.1,51.1,60,30.27,10.0,North,10.4,-,N/A,,Clear,360,2013-05-24 16:35:00
11:55 AM,65.1,50.4,59,30.28,10.0,NNE,9.2,16.1,N/A,,Clear,20,2013-05-24 16:55:00
12:15 PM,65.5,50.9,59,30.28,10.0,North,13.8,19.6,N/A,,Clear,360,2013-05-24 17:15:00
12:35 PM,66.4,50.5,57,30.28,10.0,North,6.9,-,N/A,,Clear,350,2013-05-24 17:35:00
12:55 PM,67.6,50.5,54,30.28,10.0,North,12.7,19.6,N/A,,Clear,10,2013-05-24 17:55:00
1:15 PM,68.4,50.0,52,30.27,10.0,North,10.4,17.3,N/A,,Clear,10,2013-05-24 18:15:00
1:35 PM,68.9,48.7,49,30.27,10.0,NNW,9.2,16.1,N/A,,Clear,340,2013-05-24 18:35:00
1:55 PM,69.6,48.4,47,30.27,10.0,North,8.1,-,N/A,,Clear,360,2013-05-24 18:55:00
2:15 PM,70.2,47.8,45,30.28,10.0,North,9.2,-,N/A,,Clear,10,2013-05-24 19:15:00
2:35 PM,70.3,48.7,46,30.27,10.0,North,9.2,-,N/A,,Clear,360,2013-05-24 19:35:00
2:55 PM,70.9,45.9,41,30.27,10.0,North,11.5,-,N/A,,Clear,10,2013-05-24 19:55:00
3:15 PM,71.1,45.3,40,30.27,10.0,North,10.4,16.1,N/A,,Clear,10,2013-05-24 20:15:00
3:35 PM,71.1,45.7,40,30.27,10.0,NNE,10.4,17.3,N/A,,Clear,20,2013-05-24 20:35:00
3:55 PM,71.2,46.6,41,30.27,10.0,North,9.2,16.1,N/A,,Clear,10,2013-05-24 20:55:00
4:15 PM,71.6,46.2,40,30.26,10.0,NNE,9.2,-,N/A,,Clear,30,2013-05-24 21:15:00
4:35 PM,71.4,46.2,41,30.27,10.0,North,9.2,-,N/A,,Clear,10,2013-05-24 21:35:00
4:55 PM,70.7,46.0,41,30.26,10.0,NNE,10.4,16.1,N/A,,Clear,20,2013-05-24 21:55:00
5:15 PM,70.7,45.5,40,30.27,10.0,NNE,9.2,-,N/A,,Clear,20,2013-05-24 22:15:00
5:35 PM,70.9,45.3,40,30.26,10.0,NNE,10.4,-,N/A,,Clear,20,2013-05-24 22:35:00
5:55 PM,70.2,46.4,43,30.26,10.0,NNE,6.9,-,N/A,,Clear,20,2013-05-24 22:55:00
6:15 PM,69.6,46.6,44,30.26,10.0,North,6.9,-,N/A,,Clear,360,2013-05-24 23:15:00
6:35 PM,69.1,46.0,44,30.26,10.0,North,5.8,-,N/A,,Clear,10,2013-05-24 23:35:00
6:55 PM,68.2,46.4,46,30.25,10.0,NNE,6.9,-,N/A,,Clear,20,2013-05-24 23:55:00
7:15 PM,66.4,46.9,50,30.25,10.0,North,4.6,-,N/A,,Clear,10,2013-05-25 00:15:00
7:35 PM,64.0,47.5,55,30.25,10.0,NNE,4.6,-,N/A,,Clear,20,2013-05-25 00:35:00
7:55 PM,61.7,47.7,60,30.25,10.0,North,3.5,-,N/A,,Clear,10,2013-05-25 00:55:00
8:15 PM,59.7,48.6,67,30.25,10.0,Calm,Calm,-,N/A,,Clear,0,2013-05-25 01:15:00
8:35 PM,57.6,48.6,72,30.25,10.0,NE,3.5,-,N/A,,Clear,40,2013-05-25 01:35:00
8:55 PM,56.3,48.7,76,30.26,10.0,Calm,Calm,-,N/A,,Clear,0,2013-05-25 01:55:00
9:15 PM,54.9,48.2,78,30.27,10.0,Calm,Calm,-,N/A,,Clear,0,2013-05-25 02:15:00
9:35 PM,53.4,48.7,84,30.28,10.0,Calm,Calm,-,N/A,,Clear,0,2013-05-25 02:35:00
9:55 PM,53.1,48.9,86,30.28,10.0,Calm,Calm,-,N/A,,Clear,0,2013-05-25 02:55:00
10:15 PM,52.3,48.6,87,30.28,10.0,Calm,Calm,-,N/A,,Clear,0,2013-05-25 03:15:00
10:35 PM,52.0,48.0,86,30.29,10.0,Calm,Calm,-,N/A,,Clear,0,2013-05-25 03:35:00
10:55 PM,51.1,48.4,90,30.28,10.0,Calm,Calm,-,N/A,,Clear,0,2013-05-25 03:55:00
11:15 PM,51.1,47.5,87,30.28,10.0,NE,3.5,-,N/A,,Clear,40,2013-05-25 04:15:00
11:35 PM,51.1,47.3,87,30.28,10.0,Calm,Calm,-,N/A,,Clear,0,2013-05-25 04:35:00
11:55 PM,51.1,46.6,85,30.28,10.0,Calm,Calm,-,N/A,,Clear,0,2013-05-25 04:55:00